timestamp,surface_pressure_avg,surface_temp_avg,battery_voltage,lat,long
2020-11-06 00:09:01+00:00,250.6664,8.7,12.65,47.84626,-54.09684
2020-11-06 00:19:01+00:00,253.5548,8.7,12.65,47.84626,-54.09684
2020-11-06 00:29:01+00:00,259.8531,8.7,12.65,47.84626,-54.09684
2020-11-06 00:39:01+00:00,265.9565,8.68,12.65,47.84626,-54.09684
2020-11-06 00:49:01+00:00,269.5681,8.6,12.65,47.84626,-54.09684
2020-11-06 00:59:01+00:00,274.5647,8.6,12.65,47.84626,-54.09684
2020-11-06 01:09:01+00:00,283.5863,8.6,12.65,47.84626,-54.09684
2020-11-06 01:19:01+00:00,287.5497,8.4,12.65,47.84626,-54.09684
2020-11-06 01:29:01+00:00,287.7913,8.3,12.65,47.84626,-54.09684
2020-11-06 01:39:01+00:00,292.1347,8.2,12.65,47.84626,-54.09684
2020-11-06 01:49:01+00:00,297.913,8.2,12.65,47.84626,-54.09684
2020-11-06 01:59:01+00:00,297.6664,8.29,12.65,47.84626,-54.09684
2020-11-06 02:09:01+00:00,297.408,8.4,12.65,47.84626,-54.09684
2020-11-06 02:19:01+00:00,301.2513,8.4,12.65,47.84626,-54.09684
2020-11-06 02:29:01+00:00,300.1414,8.4,12.65,47.84626,-54.09684
2020-11-06 02:39:01+00:00,296.383,8.41,12.65,47.84626,-54.09684
2020-11-06 02:49:01+00:00,295.5847,8.47,12.65,47.84626,-54.09684
2020-11-06 02:59:01+00:00,297.4014,8.5,12.65,47.84626,-54.09684
2020-11-06 03:09:01+00:00,294.9364,8.5,12.65,47.84626,-54.09684
2020-11-06 03:19:01+00:00,293.338,8.5,12.65,47.84626,-54.09684
2020-11-06 03:29:01+00:00,292.8846,8.5,12.65,47.84626,-54.09684
2020-11-06 03:39:01+00:00,294.0381,8.5,12.65,47.84626,-54.09684
2020-11-06 03:49:01+00:00,291.3096,8.5,12.65,47.84626,-54.09684
2020-11-06 03:59:01+00:00,289.4113,8.49,12.65,47.84626,-54.09684
2020-11-06 04:09:01+00:00,289.0081,8.48,12.65,47.84626,-54.09684
2020-11-06 04:19:01+00:00,288.688,8.4,12.65,47.84626,-54.09684
2020-11-06 04:29:01+00:00,286.5031,8.4,12.65,47.84626,-54.09684
2020-11-06 04:39:01+00:00,283.0731,8.4,12.65,47.84626,-54.09684
2020-11-06 04:49:01+00:00,280.043,8.4,12.65,47.84626,-54.09684
2020-11-06 04:59:01+00:00,277.3564,8.4,12.65,47.84626,-54.09684
2020-11-06 05:09:01+00:00,272.0281,8.4,12.65,47.84626,-54.09684
2020-11-06 05:19:01+00:00,266.5464,8.4,12.65,47.84626,-54.09684
2020-11-06 05:29:01+00:00,262.3331,8.5,12.65,47.84626,-54.09684
2020-11-06 05:39:01+00:00,256.928,8.5,12.65,47.84626,-54.09684
2020-11-06 05:49:01+00:00,247.9464,8.56,12.65,47.84626,-54.09684
2020-11-06 05:59:01+00:00,240.9564,8.6,12.65,47.84626,-54.09684
2020-11-06 06:09:01+00:00,234.0731,8.5,12.65,47.84626,-54.09684
2020-11-06 06:19:01+00:00,227.4247,8.4,12.65,47.84626,-54.09684
2020-11-06 06:29:01+00:00,221.0598,8.4,12.65,47.84626,-54.09684
2020-11-06 06:39:01+00:00,216.5431,8.4,12.65,47.84626,-54.09684
2020-11-06 06:49:01+00:00,212.0231,8.4,12.65,47.84626,-54.09684
2020-11-06 06:59:01+00:00,205.6714,8.4,12.65,47.84626,-54.09684
2020-11-06 07:09:01+00:00,201.7548,8.37,12.65,47.84626,-54.09684
2020-11-06 07:19:01+00:00,198.3831,8.32,12.65,47.84626,-54.09684
2020-11-06 07:29:01+00:00,194.4498,8.3,12.65,47.84626,-54.09684
2020-11-06 07:39:01+00:00,193.5447,8.32,12.65,47.84626,-54.09684
2020-11-06 07:49:01+00:00,191.8965,8.36,12.65,47.84626,-54.09684
2020-11-06 07:59:01+00:00,190.0365,8.36,12.65,47.84626,-54.09684
2020-11-06 08:09:01+00:00,192.0098,8.36,12.65,47.84626,-54.09684
2020-11-06 08:19:01+00:00,194.2065,8.36,12.65,47.84626,-54.09684
2020-11-06 08:29:01+00:00,194.2265,8.3,12.65,47.84626,-54.09684
2020-11-06 08:39:01+00:00,195.3415,8.3,12.65,47.84626,-54.09684
2020-11-06 08:49:01+00:00,198.1714,8.36,12.65,47.84626,-54.09684
2020-11-06 08:59:01+00:00,198.8765,8.4,12.65,47.84626,-54.09684
2020-11-06 09:09:01+00:00,199.5598,8.46,12.65,47.84626,-54.09684
2020-11-06 09:19:01+00:00,200.9231,8.5,12.65,47.84626,-54.09684
2020-11-06 09:29:01+00:00,201.6548,8.5,12.65,47.84626,-54.09684
2020-11-06 09:39:01+00:00,205.3281,8.5,12.65,47.84626,-54.09684
2020-11-06 09:49:01+00:00,210.8064,8.53,12.65,47.84626,-54.09684
2020-11-06 09:59:01+00:00,212.5514,8.52,12.65,47.84626,-54.09684
2020-11-06 10:09:01+00:00,215.3164,8.56,12.65,47.84626,-54.09684
2020-11-06 10:19:01+00:00,219.8731,8.55,12.65,47.84626,-54.09684
2020-11-06 10:29:01+00:00,224.3881,8.54,12.65,47.84626,-54.09684
2020-11-06 10:39:01+00:00,228.7864,8.5,12.65,47.84626,-54.09684
2020-11-06 10:49:01+00:00,232.1348,8.6,12.65,47.84626,-54.09684
2020-11-06 10:59:01+00:00,233.8648,8.67,12.65,47.84626,-54.09684
2020-11-06 11:09:01+00:00,236.8331,8.68,12.65,47.84626,-54.09684
2020-11-06 11:19:01+00:00,240.6964,8.64,12.65,47.84626,-54.09684
2020-11-06 11:29:01+00:00,244.5981,8.6,12.65,47.84626,-54.09684
2020-11-06 11:39:01+00:00,248.7881,8.6,12.65,47.84626,-54.09684
2020-11-06 11:49:01+00:00,252.6497,8.6,12.65,47.84626,-54.09684
2020-11-06 11:59:01+00:00,257.4964,8.6,12.65,47.84626,-54.09684
2020-11-06 12:09:01+00:00,264.8764,8.6,12.65,47.84626,-54.09684
2020-11-06 12:19:01+00:00,270.6414,8.6,12.65,47.84626,-54.09684
2020-11-06 12:29:01+00:00,274.0547,8.6,12.65,47.84626,-54.09684
2020-11-06 12:39:01+00:00,277.2814,8.6,12.65,47.84626,-54.09684
2020-11-06 12:49:01+00:00,282.6448,8.6,12.65,47.84626,-54.09684
2020-11-06 12:59:01+00:00,287.7447,8.6,12.65,47.84626,-54.09684
2020-11-06 13:09:01+00:00,294.033,8.6,12.65,47.84626,-54.09684
2020-11-06 13:19:01+00:00,299.8047,8.6,12.65,47.84626,-54.09684
2020-11-06 13:29:01+00:00,305.898,8.6,12.65,47.84626,-54.09684
2020-11-06 13:39:01+00:00,313.058,8.6,12.65,47.84626,-54.09684
2020-11-06 13:49:01+00:00,318.548,8.6,12.65,47.84626,-54.09684
2020-11-06 13:59:01+00:00,322.5897,8.6,12.65,47.84626,-54.09684
2020-11-06 14:09:01+00:00,328.5846,8.6,12.65,47.84626,-54.09684
2020-11-06 14:19:01+00:00,333.0262,8.6,12.65,47.84626,-54.09684
2020-11-06 14:29:01+00:00,335.9363,8.6,12.65,47.84626,-54.09684
2020-11-06 14:39:01+00:00,338.8463,8.59,12.65,47.84626,-54.09684
2020-11-06 14:49:01+00:00,338.9263,8.57,12.65,47.84626,-54.09684
2020-11-06 14:59:01+00:00,336.3780000000001,8.54,12.65,47.84626,-54.09684
2020-11-06 15:09:01+00:00,334.2447,8.55,12.65,47.84626,-54.09684
2020-11-06 15:19:01+00:00,336.353,8.56,12.65,47.84626,-54.09684
2020-11-06 15:29:01+00:00,335.5496,8.56,12.65,47.84626,-54.09684
2020-11-06 15:39:01+00:00,332.1546,8.55,12.65,47.84626,-54.09684
2020-11-06 15:49:01+00:00,332.1946,8.56,12.65,47.84626,-54.09684
2020-11-06 15:59:01+00:00,331.3696,8.55,12.65,47.84626,-54.09684
2020-11-06 16:09:01+00:00,328.1563,8.5,12.65,47.84626,-54.09684
2020-11-06 16:19:01+00:00,324.5263,8.5,12.65,47.84626,-54.09684
2020-11-06 16:29:01+00:00,321.9564,8.5,12.65,47.84626,-54.09684
2020-11-06 16:39:01+00:00,317.3446,8.5,12.65,47.84626,-54.09684
2020-11-06 16:49:01+00:00,312.2664,8.5,12.65,47.84626,-54.09684
2020-11-06 16:59:01+00:00,311.533,8.5,12.65,47.84626,-54.09684
2020-11-06 17:09:01+00:00,308.9297,8.5,12.65,47.84626,-54.09684
2020-11-06 17:19:01+00:00,302.5064,8.5,12.65,47.84626,-54.09684
2020-11-06 17:29:01+00:00,297.2347,8.5,12.65,47.84626,-54.09684
2020-11-06 17:39:01+00:00,294.8563,8.5,12.65,47.84626,-54.09684
2020-11-06 17:49:01+00:00,290.0447,8.5,12.65,47.84626,-54.09684
2020-11-06 17:59:01+00:00,282.1447,8.5,12.65,47.84626,-54.09684
2020-11-06 18:09:01+00:00,277.4681,8.5,12.65,47.84626,-54.09684
2020-11-06 18:19:01+00:00,270.6781,8.4,12.65,47.84626,-54.09684
2020-11-06 18:29:01+00:00,262.4964,8.35,12.65,47.84626,-54.09684
2020-11-06 18:39:01+00:00,257.3514,8.3,12.65,47.84626,-54.09684
2020-11-06 18:49:01+00:00,252.8581,8.3,12.65,47.84626,-54.09684
2020-11-06 18:59:01+00:00,243.9098,8.3,12.65,47.84626,-54.09684
2020-11-06 19:09:01+00:00,235.5631,8.3,12.65,47.84626,-54.09684
2020-11-06 19:19:01+00:00,230.7314,8.3,12.65,47.84626,-54.09684
2020-11-06 19:29:01+00:00,223.3331,8.3,12.65,47.84626,-54.09684
2020-11-06 19:39:01+00:00,217.9431,8.3,12.65,47.84626,-54.09684
2020-11-06 19:49:01+00:00,215.7331,8.3,12.65,47.84626,-54.09684
2020-11-06 19:59:01+00:00,211.8698,8.3,12.65,47.84626,-54.09684
2020-11-06 20:09:01+00:00,205.9631,8.3,12.65,47.84626,-54.09684
2020-11-06 20:19:01+00:00,204.0498,8.3,12.65,47.84626,-54.09684
2020-11-06 20:29:01+00:00,203.7698,8.3,12.65,47.84626,-54.09684
2020-11-06 20:39:01+00:00,203.6198,8.3,12.65,47.84626,-54.09684
2020-11-06 20:49:01+00:00,204.2715,8.3,12.65,47.84626,-54.09684
2020-11-06 20:59:01+00:00,204.9331,8.3,12.65,47.84626,-54.09684
2020-11-06 21:09:01+00:00,207.8848,8.3,12.65,47.84626,-54.09684
2020-11-06 21:19:01+00:00,211.4898,8.3,12.65,47.84626,-54.09684
2020-11-06 21:29:01+00:00,212.6664,8.3,12.65,47.84626,-54.09684
2020-11-06 21:39:01+00:00,213.9815,8.3,12.65,47.84626,-54.09684
2020-11-06 21:49:01+00:00,217.9431,8.3,12.65,47.84626,-54.09684
2020-11-06 21:59:01+00:00,219.8397,8.3,12.65,47.84626,-54.09684
2020-11-06 22:09:01+00:00,222.1898,8.3,12.65,47.84626,-54.09684
2020-11-06 22:19:01+00:00,227.7798,8.3,12.65,47.84626,-54.09684
2020-11-06 22:29:01+00:00,231.0531,8.3,12.65,47.84626,-54.09684
2020-11-06 22:39:01+00:00,231.2298,8.3,12.65,47.84626,-54.09684
2020-11-06 22:49:01+00:00,232.2497,8.3,12.65,47.84626,-54.09684
2020-11-06 22:59:01+00:00,235.5081,8.3,12.65,47.84626,-54.09684
2020-11-06 23:09:01+00:00,238.3081,8.3,12.65,47.84626,-54.09684
2020-11-06 23:19:01+00:00,238.8498,8.3,12.65,47.84626,-54.09684
2020-11-06 23:29:01+00:00,241.2131,8.3,12.65,47.84626,-54.09684
2020-11-06 23:39:01+00:00,243.1281,8.3,12.65,47.84626,-54.09684
2020-11-06 23:49:01+00:00,247.3014,8.3,12.65,47.84626,-54.09684
2020-11-06 23:59:01+00:00,251.8331,8.3,12.65,47.84626,-54.09684
